owner,sensor,date,latitude,longitude,air_temperature,qcFlag 
WAVCIS,ioos:station:WAVCIS:CSI16:1,2010-01-01T00:00:00Z,29.4012,-89.0355,27.28,11111222 
WAVCIS,ioos:station:WAVCIS:CSI16:1,2010-01-01T01:00:00Z,29.4012,-89.0355,27.82,11111222 
WAVCIS,ioos:station:WAVCIS:CSI16:1,2010-01-01T02:00:00Z,29.4012,-89.0355,27.14,11111222 
WAVCIS,ioos:station:WAVCIS:CSI16:1,2010-01-01T03:00:00Z,29.4012,-89.0355,27.98,11111222 
WAVCIS,ioos:station:WAVCIS:CSI16:1,2010-01-01T04:00:00Z,29.4012,-89.0355,29.02,11111222 
WAVCIS,ioos:station:WAVCIS:CSI16:1,2010-01-01T05:00:00Z,29.4012,-89.0355,27.78,11111222 
WAVCIS,ioos:station:WAVCIS:CSI16:1,2010-01-01T06:00:00Z,29.4012,-89.0355,29.06,11111222 
WAVCIS,ioos:station:WAVCIS:CSI16:1,2010-01-01T07:00:00Z,29.4012,-89.0355,26.02,11111222 
WAVCIS,ioos:station:WAVCIS:CSI16:1,2010-01-01T08:00:00Z,29.4012,-89.0355,31.48,11111222 
WAVCIS,ioos:station:WAVCIS:CSI16:1,2010-01-01T09:00:00Z,29.4012,-89.0355,22.24,11111222 
WAVCIS,ioos:station:WAVCIS:CSI16:1,2010-01-01T10:00:00Z,29.4012,-89.0355,26.87,11111222 
WAVCIS,ioos:station:WAVCIS:CSI16:1,2010-01-01T11:00:00Z,29.4012,-89.0355,30.75,11111222 
WAVCIS,ioos:station:WAVCIS:CSI16:1,2010-01-01T12:00:00Z,29.4012,-89.0355,32.29,11111222 
WAVCIS,ioos:station:WAVCIS:CSI16:1,2010-01-01T13:00:00Z,29.4012,-89.0355,23.19,11111222 
WAVCIS,ioos:station:WAVCIS:CSI16:1,2010-01-01T14:00:00Z,29.4012,-89.0355,21.95,11111222 
WAVCIS,ioos:station:WAVCIS:CSI16:1,2010-01-01T15:00:00Z,29.4012,-89.0355,23.54,11111222 
WAVCIS,ioos:station:WAVCIS:CSI16:1,2010-01-01T16:00:00Z,29.4012,-89.0355,23.73,11111222 
WAVCIS,ioos:station:WAVCIS:CSI16:1,2010-01-01T17:00:00Z,29.4012,-89.0355,23.07,11111222 
WAVCIS,ioos:station:WAVCIS:CSI16:1,2010-01-01T18:00:00Z,29.4012,-89.0355,22.79,11111222 
WAVCIS,ioos:station:WAVCIS:CSI16:1,2010-01-01T19:00:00Z,29.4012,-89.0355,22.74,11111222 
WAVCIS,ioos:station:WAVCIS:CSI16:1,2010-01-01T20:00:00Z,29.4012,-89.0355,22.43,11111222 
WAVCIS,ioos:station:WAVCIS:CSI16:1,2010-01-01T21:00:00Z,29.4012,-89.0355,22.75,11111222 
WAVCIS,ioos:station:WAVCIS:CSI16:1,2010-01-01T22:00:00Z,29.4012,-89.0355,22.97,11111222 
WAVCIS,ioos:station:WAVCIS:CSI16:1,2010-01-01T23:00:00Z,29.4012,-89.0355,23.32,11111222 
WAVCIS,ioos:station:WAVCIS:CSI16:1,2010-01-02T00:00:00Z,29.4012,-89.0355,23.61,11111222 
WAVCIS,ioos:station:WAVCIS:CSI16:1,2010-01-02T01:00:00Z,29.4012,-89.0355,24.67,11111222 
WAVCIS,ioos:station:WAVCIS:CSI16:1,2010-01-02T02:00:00Z,29.4012,-89.0355,27.2,11111222 
WAVCIS,ioos:station:WAVCIS:CSI16:1,2010-01-02T03:00:00Z,29.4012,-89.0355,25.73,11111222 
WAVCIS,ioos:station:WAVCIS:CSI16:1,2010-01-02T04:00:00Z,29.4012,-89.0355,27.99,11111222 
WAVCIS,ioos:station:WAVCIS:CSI16:1,2010-01-02T05:00:00Z,29.4012,-89.0355,27.03,11111222 
WAVCIS,ioos:station:WAVCIS:CSI16:1,2010-01-02T06:00:00Z,29.4012,-89.0355,28.01,11111222 
WAVCIS,ioos:station:WAVCIS:CSI16:1,2010-01-02T07:00:00Z,29.4012,-89.0355,29.66,11111222 
WAVCIS,ioos:station:WAVCIS:CSI16:1,2010-01-02T08:00:00Z,29.4012,-89.0355,28.97,11111222 
WAVCIS,ioos:station:WAVCIS:CSI16:1,2010-01-02T09:00:00Z,29.4012,-89.0355,30.01,11111222 
WAVCIS,ioos:station:WAVCIS:CSI16:1,2010-01-02T10:00:00Z,29.4012,-89.0355,30.93,11111222 
WAVCIS,ioos:station:WAVCIS:CSI16:1,2010-01-02T11:00:00Z,29.4012,-89.0355,27.03,11111222 
WAVCIS,ioos:station:WAVCIS:CSI16:1,2010-01-02T12:00:00Z,29.4012,-89.0355,31.75,11111222 
WAVCIS,ioos:station:WAVCIS:CSI16:1,2010-01-02T13:00:00Z,29.4012,-89.0355,30.9,11111222 
WAVCIS,ioos:station:WAVCIS:CSI16:1,2010-01-02T14:00:00Z,29.4012,-89.0355,31.64,11111222 
WAVCIS,ioos:station:WAVCIS:CSI16:1,2010-01-02T15:00:00Z,29.4012,-89.0355,32.42,11111222 
WAVCIS,ioos:station:WAVCIS:CSI16:1,2010-01-02T16:00:00Z,29.4012,-89.0355,33.26,11111222 
WAVCIS,ioos:station:WAVCIS:CSI16:1,2010-01-02T17:00:00Z,29.4012,-89.0355,32.7,11111222 
WAVCIS,ioos:station:WAVCIS:CSI16:1,2010-01-02T18:00:00Z,29.4012,-89.0355,31.79,11111222 
WAVCIS,ioos:station:WAVCIS:CSI16:1,2010-01-02T19:00:00Z,29.4012,-89.0355,31.15,11111222 
WAVCIS,ioos:station:WAVCIS:CSI16:1,2010-01-02T20:00:00Z,29.4012,-89.0355,32.65,11111222 
WAVCIS,ioos:station:WAVCIS:CSI16:1,2010-01-02T21:00:00Z,29.4012,-89.0355,28.56,11111222 
WAVCIS,ioos:station:WAVCIS:CSI16:1,2010-01-02T22:00:00Z,29.4012,-89.0355,31.96,11111222 
WAVCIS,ioos:station:WAVCIS:CSI16:1,2010-01-02T23:00:00Z,29.4012,-89.0355,29.32,11111222 
WAVCIS,ioos:station:WAVCIS:CSI16:1,2010-01-03T00:00:00Z,29.4012,-89.0355,33.59,11111222 
WAVCIS,ioos:station:WAVCIS:CSI16:1,2010-01-03T01:00:00Z,29.4012,-89.0355,32.2,11111222 
WAVCIS,ioos:station:WAVCIS:CSI16:1,2010-01-03T02:00:00Z,29.4012,-89.0355,32.28,11111222 
WAVCIS,ioos:station:WAVCIS:CSI16:1,2010-01-03T03:00:00Z,29.4012,-89.0355,31.56,11111222 
WAVCIS,ioos:station:WAVCIS:CSI16:1,2010-01-03T04:00:00Z,29.4012,-89.0355,29.79,11111222 
WAVCIS,ioos:station:WAVCIS:CSI16:1,2010-01-03T05:00:00Z,29.4012,-89.0355,31.83,11111222 
WAVCIS,ioos:station:WAVCIS:CSI16:1,2010-01-03T06:00:00Z,29.4012,-89.0355,31.86,11111222 
WAVCIS,ioos:station:WAVCIS:CSI16:1,2010-01-03T07:00:00Z,29.4012,-89.0355,31.61,11111222 
WAVCIS,ioos:station:WAVCIS:CSI16:1,2010-01-03T08:00:00Z,29.4012,-89.0355,30.41,11111222 
WAVCIS,ioos:station:WAVCIS:CSI16:1,2010-01-03T09:00:00Z,29.4012,-89.0355,29.78,11111222 
WAVCIS,ioos:station:WAVCIS:CSI16:1,2010-01-03T10:00:00Z,29.4012,-89.0355,31.17,11111222 
WAVCIS,ioos:station:WAVCIS:CSI16:1,2010-01-03T11:00:00Z,29.4012,-89.0355,30.35,11111222 
WAVCIS,ioos:station:WAVCIS:CSI16:1,2010-01-03T12:00:00Z,29.4012,-89.0355,30.32,11111222 
WAVCIS,ioos:station:WAVCIS:CSI16:1,2010-01-03T13:00:00Z,29.4012,-89.0355,29.98,11111222 
WAVCIS,ioos:station:WAVCIS:CSI16:1,2010-01-03T14:00:00Z,29.4012,-89.0355,31.32,11111222 
WAVCIS,ioos:station:WAVCIS:CSI16:1,2010-01-03T15:00:00Z,29.4012,-89.0355,31.08,11111222 
WAVCIS,ioos:station:WAVCIS:CSI16:1,2010-01-03T16:00:00Z,29.4012,-89.0355,30.7,11111222 
WAVCIS,ioos:station:WAVCIS:CSI16:1,2010-01-03T17:00:00Z,29.4012,-89.0355,29.52,11111222 
WAVCIS,ioos:station:WAVCIS:CSI16:1,2010-01-03T18:00:00Z,29.4012,-89.0355,29.74,11111222 
WAVCIS,ioos:station:WAVCIS:CSI16:1,2010-01-03T19:00:00Z,29.4012,-89.0355,26.11,11111222 
WAVCIS,ioos:station:WAVCIS:CSI16:1,2010-01-03T20:00:00Z,29.4012,-89.0355,30.07,11111222 
WAVCIS,ioos:station:WAVCIS:CSI16:1,2010-01-03T21:00:00Z,29.4012,-89.0355,31.05,11111222 
WAVCIS,ioos:station:WAVCIS:CSI16:1,2010-01-03T22:00:00Z,29.4012,-89.0355,31.71,11111222 
WAVCIS,ioos:station:WAVCIS:CSI16:1,2010-01-03T23:00:00Z,29.4012,-89.0355,30.17,11111222 
WAVCIS,ioos:station:WAVCIS:CSI16:1,2010-01-04T00:00:00Z,29.4012,-89.0355,28.84,11111222 
WAVCIS,ioos:station:WAVCIS:CSI16:1,2010-01-04T01:00:00Z,29.4012,-89.0355,30.64,11111222 
WAVCIS,ioos:station:WAVCIS:CSI16:1,2010-01-04T02:00:00Z,29.4012,-89.0355,31.21,11111222 
WAVCIS,ioos:station:WAVCIS:CSI16:1,2010-01-04T03:00:00Z,29.4012,-89.0355,30.69,11111222 
WAVCIS,ioos:station:WAVCIS:CSI16:1,2010-01-04T04:00:00Z,29.4012,-89.0355,31.17,11111222 
WAVCIS,ioos:station:WAVCIS:CSI16:1,2010-01-04T05:00:00Z,29.4012,-89.0355,31.24,11111222 
WAVCIS,ioos:station:WAVCIS:CSI16:1,2010-01-04T06:00:00Z,29.4012,-89.0355,29.26,11111222 
WAVCIS,ioos:station:WAVCIS:CSI16:1,2010-01-04T07:00:00Z,29.4012,-89.0355,30.8,11111222 
WAVCIS,ioos:station:WAVCIS:CSI16:1,2010-01-04T08:00:00Z,29.4012,-89.0355,31.67,11111222 
WAVCIS,ioos:station:WAVCIS:CSI16:1,2010-01-04T09:00:00Z,29.4012,-89.0355,31.75,11111222 
WAVCIS,ioos:station:WAVCIS:CSI16:1,2010-01-04T10:00:00Z,29.4012,-89.0355,27.94,11111222 
WAVCIS,ioos:station:WAVCIS:CSI16:1,2010-01-04T11:00:00Z,29.4012,-89.0355,30.51,11111222 
WAVCIS,ioos:station:WAVCIS:CSI16:1,2010-01-04T12:00:00Z,29.4012,-89.0355,27.64,11111222 
WAVCIS,ioos:station:WAVCIS:CSI16:1,2010-01-04T13:00:00Z,29.4012,-89.0355,28.06,11111222 
WAVCIS,ioos:station:WAVCIS:CSI16:1,2010-01-04T14:00:00Z,29.4012,-89.0355,28.61,11111222 
WAVCIS,ioos:station:WAVCIS:CSI16:1,2010-01-04T15:00:00Z,29.4012,-89.0355,25.34,11111222 
WAVCIS,ioos:station:WAVCIS:CSI16:1,2010-01-04T16:00:00Z,29.4012,-89.0355,27.22,11111222 
WAVCIS,ioos:station:WAVCIS:CSI16:1,2010-01-04T21:00:00Z,29.4012,-89.0355,21.28,11111222 
WAVCIS,ioos:station:WAVCIS:CSI16:1,2010-01-04T22:00:00Z,29.4012,-89.0355,20.42,11111222 
WAVCIS,ioos:station:WAVCIS:CSI16:1,2010-01-04T23:00:00Z,29.4012,-89.0355,19.93,11111222 
WAVCIS,ioos:station:WAVCIS:CSI16:1,2010-01-05T00:00:00Z,29.4012,-89.0355,20.26,11111222 
WAVCIS,ioos:station:WAVCIS:CSI16:1,2010-01-05T01:00:00Z,29.4012,-89.0355,19.88,11111222 
WAVCIS,ioos:station:WAVCIS:CSI16:1,2010-01-05T02:00:00Z,29.4012,-89.0355,19.75,11111222 
WAVCIS,ioos:station:WAVCIS:CSI16:1,2010-01-05T03:00:00Z,29.4012,-89.0355,19.74,11111222 
WAVCIS,ioos:station:WAVCIS:CSI16:1,2010-01-05T04:00:00Z,29.4012,-89.0355,20.06,11111222 
WAVCIS,ioos:station:WAVCIS:CSI16:1,2010-01-05T05:00:00Z,29.4012,-89.0355,20.24,11111222 
WAVCIS,ioos:station:WAVCIS:CSI16:1,2010-01-05T06:00:00Z,29.4012,-89.0355,20.87,11111222 
WAVCIS,ioos:station:WAVCIS:CSI16:1,2010-01-05T07:00:00Z,29.4012,-89.0355,21.01,11111222 
WAVCIS,ioos:station:WAVCIS:CSI16:1,2010-01-05T08:00:00Z,29.4012,-89.0355,21.31,11111222 
WAVCIS,ioos:station:WAVCIS:CSI16:1,2010-01-05T09:00:00Z,29.4012,-89.0355,20.8,11111222 
WAVCIS,ioos:station:WAVCIS:CSI16:1,2010-01-05T10:00:00Z,29.4012,-89.0355,20.21,11111222 
WAVCIS,ioos:station:WAVCIS:CSI16:1,2010-01-05T11:00:00Z,29.4012,-89.0355,20.56,11111222 
WAVCIS,ioos:station:WAVCIS:CSI16:1,2010-01-05T12:00:00Z,29.4012,-89.0355,20.56,11111222 
WAVCIS,ioos:station:WAVCIS:CSI16:1,2010-01-05T13:00:00Z,29.4012,-89.0355,21.02,11111222 
WAVCIS,ioos:station:WAVCIS:CSI16:1,2010-01-05T14:00:00Z,29.4012,-89.0355,21.96,11111222 
WAVCIS,ioos:station:WAVCIS:CSI16:1,2010-01-05T15:00:00Z,29.4012,-89.0355,22.99,11111222 
WAVCIS,ioos:station:WAVCIS:CSI16:1,2010-01-05T16:00:00Z,29.4012,-89.0355,23.5,11111222 
WAVCIS,ioos:station:WAVCIS:CSI16:1,2010-01-05T17:00:00Z,29.4012,-89.0355,21.53,11111222 
WAVCIS,ioos:station:WAVCIS:CSI16:1,2010-01-05T18:00:00Z,29.4012,-89.0355,20.83,11111222 
WAVCIS,ioos:station:WAVCIS:CSI16:1,2010-01-05T19:00:00Z,29.4012,-89.0355,20.79,11111222 
WAVCIS,ioos:station:WAVCIS:CSI16:1,2010-01-05T23:00:00Z,29.4012,-89.0355,23.79,11111222 
WAVCIS,ioos:station:WAVCIS:CSI16:1,2010-01-06T00:00:00Z,29.4012,-89.0355,23.12,11111222 
WAVCIS,ioos:station:WAVCIS:CSI16:1,2010-01-06T01:00:00Z,29.4012,-89.0355,23.14,11111222 
WAVCIS,ioos:station:WAVCIS:CSI16:1,2010-01-06T02:00:00Z,29.4012,-89.0355,22.86,11111222 
WAVCIS,ioos:station:WAVCIS:CSI16:1,2010-01-06T03:00:00Z,29.4012,-89.0355,22.95,11111222 
WAVCIS,ioos:station:WAVCIS:CSI16:1,2010-01-06T04:00:00Z,29.4012,-89.0355,22.81,11111222 
WAVCIS,ioos:station:WAVCIS:CSI16:1,2010-01-06T05:00:00Z,29.4012,-89.0355,22.87,11111222 
WAVCIS,ioos:station:WAVCIS:CSI16:1,2010-01-06T06:00:00Z,29.4012,-89.0355,22.79,11111222 
WAVCIS,ioos:station:WAVCIS:CSI16:1,2010-01-06T07:00:00Z,29.4012,-89.0355,22.97,11111222 
WAVCIS,ioos:station:WAVCIS:CSI16:1,2010-01-06T08:00:00Z,29.4012,-89.0355,22.61,11111222 
WAVCIS,ioos:station:WAVCIS:CSI16:1,2010-01-06T09:00:00Z,29.4012,-89.0355,22.63,11111222 
WAVCIS,ioos:station:WAVCIS:CSI16:1,2010-01-06T10:00:00Z,29.4012,-89.0355,22.93,11111222 
WAVCIS,ioos:station:WAVCIS:CSI16:1,2010-01-06T11:00:00Z,29.4012,-89.0355,22.91,11111222 
WAVCIS,ioos:station:WAVCIS:CSI16:1,2010-01-06T12:00:00Z,29.4012,-89.0355,23.13,11111222 
WAVCIS,ioos:station:WAVCIS:CSI16:1,2010-01-06T13:00:00Z,29.4012,-89.0355,22.85,11111222 
WAVCIS,ioos:station:WAVCIS:CSI16:1,2010-01-06T14:00:00Z,29.4012,-89.0355,23.76,11111222 
WAVCIS,ioos:station:WAVCIS:CSI16:1,2010-01-06T15:00:00Z,29.4012,-89.0355,24.32,11111222 
WAVCIS,ioos:station:WAVCIS:CSI16:1,2010-01-06T16:00:00Z,29.4012,-89.0355,23.6,11111222 
WAVCIS,ioos:station:WAVCIS:CSI16:1,2010-01-06T17:00:00Z,29.4012,-89.0355,24.69,11111222 
WAVCIS,ioos:station:WAVCIS:CSI16:1,2010-01-06T18:00:00Z,29.4012,-89.0355,21.01,11111222 
WAVCIS,ioos:station:WAVCIS:CSI16:1,2010-01-06T19:00:00Z,29.4012,-89.0355,23.1,11111222 
WAVCIS,ioos:station:WAVCIS:CSI16:1,2010-01-06T20:00:00Z,29.4012,-89.0355,24.65,11111222 
WAVCIS,ioos:station:WAVCIS:CSI16:1,2010-01-06T21:00:00Z,29.4012,-89.0355,24.83,11111222 
WAVCIS,ioos:station:WAVCIS:CSI16:1,2010-01-06T22:00:00Z,29.4012,-89.0355,25.59,11111222 
WAVCIS,ioos:station:WAVCIS:CSI16:1,2010-01-06T23:00:00Z,29.4012,-89.0355,24.85,11111222 
WAVCIS,ioos:station:WAVCIS:CSI16:1,2010-01-07T00:00:00Z,29.4012,-89.0355,24.75,11111222 
WAVCIS,ioos:station:WAVCIS:CSI16:1,2010-01-07T01:00:00Z,29.4012,-89.0355,25.64,11111222 
WAVCIS,ioos:station:WAVCIS:CSI16:1,2010-01-07T02:00:00Z,29.4012,-89.0355,25.81,11111222 
WAVCIS,ioos:station:WAVCIS:CSI16:1,2010-01-07T03:00:00Z,29.4012,-89.0355,25.42,11111222 
WAVCIS,ioos:station:WAVCIS:CSI16:1,2010-01-07T04:00:00Z,29.4012,-89.0355,25.2,11111222 
WAVCIS,ioos:station:WAVCIS:CSI16:1,2010-01-07T05:00:00Z,29.4012,-89.0355,25.11,11111222 
WAVCIS,ioos:station:WAVCIS:CSI16:1,2010-01-07T06:00:00Z,29.4012,-89.0355,24.95,11111222 
WAVCIS,ioos:station:WAVCIS:CSI16:1,2010-01-07T07:00:00Z,29.4012,-89.0355,22.88,11111222 
WAVCIS,ioos:station:WAVCIS:CSI16:1,2010-01-07T08:00:00Z,29.4012,-89.0355,26.13,11111222 
WAVCIS,ioos:station:WAVCIS:CSI16:1,2010-01-07T09:00:00Z,29.4012,-89.0355,27.38,11111222 
WAVCIS,ioos:station:WAVCIS:CSI16:1,2010-01-07T10:00:00Z,29.4012,-89.0355,25.62,11111222 
WAVCIS,ioos:station:WAVCIS:CSI16:1,2010-01-07T11:00:00Z,29.4012,-89.0355,27.61,11111222 
WAVCIS,ioos:station:WAVCIS:CSI16:1,2010-01-07T12:00:00Z,29.4012,-89.0355,27.59,11111222 
WAVCIS,ioos:station:WAVCIS:CSI16:1,2010-01-07T13:00:00Z,29.4012,-89.0355,25.26,11111222 
WAVCIS,ioos:station:WAVCIS:CSI16:1,2010-01-07T14:00:00Z,29.4012,-89.0355,28.56,11111222 
WAVCIS,ioos:station:WAVCIS:CSI16:1,2010-01-07T15:00:00Z,29.4012,-89.0355,26.67,11111222 
WAVCIS,ioos:station:WAVCIS:CSI16:1,2010-01-07T16:00:00Z,29.4012,-89.0355,24.23,11111222 
WAVCIS,ioos:station:WAVCIS:CSI16:1,2010-01-07T17:00:00Z,29.4012,-89.0355,24.14,11111222 
WAVCIS,ioos:station:WAVCIS:CSI16:1,2010-01-07T18:00:00Z,29.4012,-89.0355,24.26,11111222 
WAVCIS,ioos:station:WAVCIS:CSI16:1,2010-01-07T19:00:00Z,29.4012,-89.0355,24.5,11111222 
WAVCIS,ioos:station:WAVCIS:CSI16:1,2010-01-07T20:00:00Z,29.4012,-89.0355,24.42,11111222 
WAVCIS,ioos:station:WAVCIS:CSI16:1,2010-01-07T21:00:00Z,29.4012,-89.0355,25.27,11111222 
WAVCIS,ioos:station:WAVCIS:CSI16:1,2010-01-07T22:00:00Z,29.4012,-89.0355,21.56,11111222 
WAVCIS,ioos:station:WAVCIS:CSI16:1,2010-01-07T23:00:00Z,29.4012,-89.0355,22.77,11111222 
WAVCIS,ioos:station:WAVCIS:CSI16:1,2010-01-08T00:00:00Z,29.4012,-89.0355,22.44,11111222 
WAVCIS,ioos:station:WAVCIS:CSI16:1,2010-01-08T01:00:00Z,29.4012,-89.0355,23.13,11111222 
WAVCIS,ioos:station:WAVCIS:CSI16:1,2010-01-08T02:00:00Z,29.4012,-89.0355,20.24,11111222 
WAVCIS,ioos:station:WAVCIS:CSI16:1,2010-01-08T03:00:00Z,29.4012,-89.0355,20.1,11111222 
WAVCIS,ioos:station:WAVCIS:CSI16:1,2010-01-08T04:00:00Z,29.4012,-89.0355,20.11,11111222 
WAVCIS,ioos:station:WAVCIS:CSI16:1,2010-01-08T05:00:00Z,29.4012,-89.0355,19.81,11111222 
WAVCIS,ioos:station:WAVCIS:CSI16:1,2010-01-08T06:00:00Z,29.4012,-89.0355,19.53,11111222 
WAVCIS,ioos:station:WAVCIS:CSI16:1,2010-01-08T07:00:00Z,29.4012,-89.0355,19.4,11111222 
WAVCIS,ioos:station:WAVCIS:CSI16:1,2010-01-08T08:00:00Z,29.4012,-89.0355,19.97,11111222 
WAVCIS,ioos:station:WAVCIS:CSI16:1,2010-01-08T09:00:00Z,29.4012,-89.0355,20.68,11111222 
WAVCIS,ioos:station:WAVCIS:CSI16:1,2010-01-08T11:00:00Z,29.4012,-89.0355,20.59,11111222 
WAVCIS,ioos:station:WAVCIS:CSI16:1,2010-01-08T12:00:00Z,29.4012,-89.0355,21.08,11111222 
WAVCIS,ioos:station:WAVCIS:CSI16:1,2010-01-08T13:00:00Z,29.4012,-89.0355,21.1,11111222 
WAVCIS,ioos:station:WAVCIS:CSI16:1,2010-01-08T14:00:00Z,29.4012,-89.0355,22.01,11111222 
WAVCIS,ioos:station:WAVCIS:CSI16:1,2010-01-08T15:00:00Z,29.4012,-89.0355,21.3,11111222 
WAVCIS,ioos:station:WAVCIS:CSI16:1,2010-01-08T16:00:00Z,29.4012,-89.0355,21.7,11111222 
WAVCIS,ioos:station:WAVCIS:CSI16:1,2010-01-08T17:00:00Z,29.4012,-89.0355,20.34,11111222 
WAVCIS,ioos:station:WAVCIS:CSI16:1,2010-01-08T18:00:00Z,29.4012,-89.0355,19.99,11111222 
WAVCIS,ioos:station:WAVCIS:CSI16:1,2010-01-10T01:00:00Z,29.4012,-89.0355,21.32,11111222 
WAVCIS,ioos:station:WAVCIS:CSI16:1,2010-01-10T02:00:00Z,29.4012,-89.0355,21.09,11111222 
WAVCIS,ioos:station:WAVCIS:CSI16:1,2010-01-10T03:00:00Z,29.4012,-89.0355,20.83,11111222 
WAVCIS,ioos:station:WAVCIS:CSI16:1,2010-01-10T04:00:00Z,29.4012,-89.0355,20.93,11111222 
WAVCIS,ioos:station:WAVCIS:CSI16:1,2010-01-10T05:00:00Z,29.4012,-89.0355,21.53,11111222 
WAVCIS,ioos:station:WAVCIS:CSI16:1,2010-01-10T06:00:00Z,29.4012,-89.0355,21.86,11111222 
WAVCIS,ioos:station:WAVCIS:CSI16:1,2010-01-10T07:00:00Z,29.4012,-89.0355,22.16,11111222 
WAVCIS,ioos:station:WAVCIS:CSI16:1,2010-01-10T08:00:00Z,29.4012,-89.0355,20.6,11111222 
WAVCIS,ioos:station:WAVCIS:CSI16:1,2010-01-10T09:00:00Z,29.4012,-89.0355,21.5,11111222 
WAVCIS,ioos:station:WAVCIS:CSI16:1,2010-01-10T10:00:00Z,29.4012,-89.0355,21.77,11111222 
WAVCIS,ioos:station:WAVCIS:CSI16:1,2010-01-10T11:00:00Z,29.4012,-89.0355,21.97,11111222 
WAVCIS,ioos:station:WAVCIS:CSI16:1,2010-01-10T12:00:00Z,29.4012,-89.0355,22.11,11111222 
WAVCIS,ioos:station:WAVCIS:CSI16:1,2010-01-10T13:00:00Z,29.4012,-89.0355,22.38,11111222 
WAVCIS,ioos:station:WAVCIS:CSI16:1,2010-01-10T14:00:00Z,29.4012,-89.0355,22.51,11111222 
WAVCIS,ioos:station:WAVCIS:CSI16:1,2010-01-10T15:00:00Z,29.4012,-89.0355,23.01,11111222 
WAVCIS,ioos:station:WAVCIS:CSI16:1,2010-01-10T16:00:00Z,29.4012,-89.0355,23.35,11111222 
WAVCIS,ioos:station:WAVCIS:CSI16:1,2010-01-10T17:00:00Z,29.4012,-89.0355,21.96,11111222 
WAVCIS,ioos:station:WAVCIS:CSI16:1,2010-01-10T18:00:00Z,29.4012,-89.0355,21.56,11111222 
WAVCIS,ioos:station:WAVCIS:CSI16:1,2010-01-10T19:00:00Z,29.4012,-89.0355,21.59,11111222 
WAVCIS,ioos:station:WAVCIS:CSI16:1,2010-01-10T20:00:00Z,29.4012,-89.0355,21.27,11111222 
WAVCIS,ioos:station:WAVCIS:CSI16:1,2010-01-10T21:00:00Z,29.4012,-89.0355,21.63,11111222 
WAVCIS,ioos:station:WAVCIS:CSI16:1,2010-01-10T22:00:00Z,29.4012,-89.0355,22.6,11111222 
WAVCIS,ioos:station:WAVCIS:CSI16:1,2010-01-10T23:00:00Z,29.4012,-89.0355,22.34,11111222 
WAVCIS,ioos:station:WAVCIS:CSI16:1,2010-01-11T00:00:00Z,29.4012,-89.0355,22.92,11111222 
WAVCIS,ioos:station:WAVCIS:CSI16:1,2010-01-11T01:00:00Z,29.4012,-89.0355,23.27,11111222 
WAVCIS,ioos:station:WAVCIS:CSI16:1,2010-01-11T02:00:00Z,29.4012,-89.0355,22.51,11111222 
WAVCIS,ioos:station:WAVCIS:CSI16:1,2010-01-11T03:00:00Z,29.4012,-89.0355,21.9,11111222 
WAVCIS,ioos:station:WAVCIS:CSI16:1,2010-01-11T04:00:00Z,29.4012,-89.0355,21.77,11111222 
WAVCIS,ioos:station:WAVCIS:CSI16:1,2010-01-11T05:00:00Z,29.4012,-89.0355,21.91,11111222 
WAVCIS,ioos:station:WAVCIS:CSI16:1,2010-01-11T06:00:00Z,29.4012,-89.0355,22.93,11111222 
WAVCIS,ioos:station:WAVCIS:CSI16:1,2010-01-11T07:00:00Z,29.4012,-89.0355,23.02,11111222 
WAVCIS,ioos:station:WAVCIS:CSI16:1,2010-01-11T08:00:00Z,29.4012,-89.0355,23.7,11111222 
WAVCIS,ioos:station:WAVCIS:CSI16:1,2010-01-11T09:00:00Z,29.4012,-89.0355,24.27,11111222 
WAVCIS,ioos:station:WAVCIS:CSI16:1,2010-01-11T10:00:00Z,29.4012,-89.0355,24.07,11111222 
WAVCIS,ioos:station:WAVCIS:CSI16:1,2010-01-11T11:00:00Z,29.4012,-89.0355,23.99,11111222 
WAVCIS,ioos:station:WAVCIS:CSI16:1,2010-01-11T12:00:00Z,29.4012,-89.0355,24.26,11111222 
WAVCIS,ioos:station:WAVCIS:CSI16:1,2010-01-11T13:00:00Z,29.4012,-89.0355,23.22,11111222 
WAVCIS,ioos:station:WAVCIS:CSI16:1,2010-01-11T14:00:00Z,29.4012,-89.0355,25.85,11111222 
WAVCIS,ioos:station:WAVCIS:CSI16:1,2010-01-11T15:00:00Z,29.4012,-89.0355,23.89,11111222 
WAVCIS,ioos:station:WAVCIS:CSI16:1,2010-01-11T16:00:00Z,29.4012,-89.0355,22.01,11111222 
WAVCIS,ioos:station:WAVCIS:CSI16:1,2010-01-11T17:00:00Z,29.4012,-89.0355,20.83,11111222 
WAVCIS,ioos:station:WAVCIS:CSI16:1,2010-01-11T18:00:00Z,29.4012,-89.0355,20.62,11111222 
WAVCIS,ioos:station:WAVCIS:CSI16:1,2010-01-11T19:00:00Z,29.4012,-89.0355,21.19,11111222 
WAVCIS,ioos:station:WAVCIS:CSI16:1,2010-01-11T20:00:00Z,29.4012,-89.0355,24.42,11111222 
WAVCIS,ioos:station:WAVCIS:CSI16:1,2010-01-11T21:00:00Z,29.4012,-89.0355,28.39,11111222 
WAVCIS,ioos:station:WAVCIS:CSI16:1,2010-01-11T22:00:00Z,29.4012,-89.0355,26.66,11111222 
WAVCIS,ioos:station:WAVCIS:CSI16:1,2010-01-11T23:00:00Z,29.4012,-89.0355,25.51,11111222 
WAVCIS,ioos:station:WAVCIS:CSI16:1,2010-01-12T00:00:00Z,29.4012,-89.0355,22.08,11111222 
WAVCIS,ioos:station:WAVCIS:CSI16:1,2010-01-12T01:00:00Z,29.4012,-89.0355,22.39,11111222 
WAVCIS,ioos:station:WAVCIS:CSI16:1,2010-01-12T02:00:00Z,29.4012,-89.0355,23.23,11111222 
WAVCIS,ioos:station:WAVCIS:CSI16:1,2010-01-12T03:00:00Z,29.4012,-89.0355,24.12,11111222 
WAVCIS,ioos:station:WAVCIS:CSI16:1,2010-01-12T04:00:00Z,29.4012,-89.0355,24.22,11111222 
WAVCIS,ioos:station:WAVCIS:CSI16:1,2010-01-12T05:00:00Z,29.4012,-89.0355,24.52,11111222 
WAVCIS,ioos:station:WAVCIS:CSI16:1,2010-01-12T06:00:00Z,29.4012,-89.0355,23.12,11111222 
WAVCIS,ioos:station:WAVCIS:CSI16:1,2010-01-12T07:00:00Z,29.4012,-89.0355,22.75,11111222 
WAVCIS,ioos:station:WAVCIS:CSI16:1,2010-01-12T08:00:00Z,29.4012,-89.0355,23.43,11111222 
WAVCIS,ioos:station:WAVCIS:CSI16:1,2010-01-12T09:00:00Z,29.4012,-89.0355,24.04,11111222 
WAVCIS,ioos:station:WAVCIS:CSI16:1,2010-01-12T10:00:00Z,29.4012,-89.0355,24.6,11111222 
WAVCIS,ioos:station:WAVCIS:CSI16:1,2010-01-12T11:00:00Z,29.4012,-89.0355,25.07,11111222 
WAVCIS,ioos:station:WAVCIS:CSI16:1,2010-01-12T12:00:00Z,29.4012,-89.0355,25.22,11111222 
WAVCIS,ioos:station:WAVCIS:CSI16:1,2010-01-12T13:00:00Z,29.4012,-89.0355,24.87,11111222 
WAVCIS,ioos:station:WAVCIS:CSI16:1,2010-01-12T14:00:00Z,29.4012,-89.0355,26.77,11111222 
WAVCIS,ioos:station:WAVCIS:CSI16:1,2010-01-12T15:00:00Z,29.4012,-89.0355,25.77,11111222 
WAVCIS,ioos:station:WAVCIS:CSI16:1,2010-01-12T16:00:00Z,29.4012,-89.0355,26.24,11111222 
WAVCIS,ioos:station:WAVCIS:CSI16:1,2010-01-12T17:00:00Z,29.4012,-89.0355,23.65,11111222 
WAVCIS,ioos:station:WAVCIS:CSI16:1,2010-01-12T18:00:00Z,29.4012,-89.0355,24.21,11111222 
WAVCIS,ioos:station:WAVCIS:CSI16:1,2010-01-12T19:00:00Z,29.4012,-89.0355,25.03,11111222 
WAVCIS,ioos:station:WAVCIS:CSI16:1,2010-01-12T20:00:00Z,29.4012,-89.0355,27.04,11111222 
WAVCIS,ioos:station:WAVCIS:CSI16:1,2010-01-12T21:00:00Z,29.4012,-89.0355,27.46,11111222 
WAVCIS,ioos:station:WAVCIS:CSI16:1,2010-01-12T22:00:00Z,29.4012,-89.0355,28.04,11111222 
WAVCIS,ioos:station:WAVCIS:CSI16:1,2010-01-12T23:00:00Z,29.4012,-89.0355,24.42,11111222 
WAVCIS,ioos:station:WAVCIS:CSI16:1,2010-01-13T00:00:00Z,29.4012,-89.0355,24.07,11111222 
WAVCIS,ioos:station:WAVCIS:CSI16:1,2010-01-13T01:00:00Z,29.4012,-89.0355,24.11,11111222 
WAVCIS,ioos:station:WAVCIS:CSI16:1,2010-01-13T02:00:00Z,29.4012,-89.0355,24.74,11111222 
WAVCIS,ioos:station:WAVCIS:CSI16:1,2010-01-13T03:00:00Z,29.4012,-89.0355,24.53,11111222 
WAVCIS,ioos:station:WAVCIS:CSI16:1,2010-01-13T04:00:00Z,29.4012,-89.0355,24.67,11111222 
WAVCIS,ioos:station:WAVCIS:CSI16:1,2010-01-13T05:00:00Z,29.4012,-89.0355,22.05,11111222 
WAVCIS,ioos:station:WAVCIS:CSI16:1,2010-01-13T06:00:00Z,29.4012,-89.0355,29.57,11111222 
WAVCIS,ioos:station:WAVCIS:CSI16:1,2010-01-13T07:00:00Z,29.4012,-89.0355,30.88,11111222 
WAVCIS,ioos:station:WAVCIS:CSI16:1,2010-01-13T08:00:00Z,29.4012,-89.0355,31.16,11111222 
WAVCIS,ioos:station:WAVCIS:CSI16:1,2010-01-13T09:00:00Z,29.4012,-89.0355,29.69,11111222 
WAVCIS,ioos:station:WAVCIS:CSI16:1,2010-01-13T10:00:00Z,29.4012,-89.0355,28.79,11111222 
WAVCIS,ioos:station:WAVCIS:CSI16:1,2010-01-13T11:00:00Z,29.4012,-89.0355,28.55,11111222 
WAVCIS,ioos:station:WAVCIS:CSI16:1,2010-01-13T12:00:00Z,29.4012,-89.0355,25.86,11111222 
WAVCIS,ioos:station:WAVCIS:CSI16:1,2010-01-13T13:00:00Z,29.4012,-89.0355,23.81,11111222 
WAVCIS,ioos:station:WAVCIS:CSI16:1,2010-01-13T14:00:00Z,29.4012,-89.0355,25.41,11111222 
WAVCIS,ioos:station:WAVCIS:CSI16:1,2010-01-13T15:00:00Z,29.4012,-89.0355,24.99,11111222 
WAVCIS,ioos:station:WAVCIS:CSI16:1,2010-01-13T16:00:00Z,29.4012,-89.0355,26.75,11111222 
WAVCIS,ioos:station:WAVCIS:CSI16:1,2010-01-13T17:00:00Z,29.4012,-89.0355,28.01,11111222 
WAVCIS,ioos:station:WAVCIS:CSI16:1,2010-01-13T18:00:00Z,29.4012,-89.0355,25.22,11111222 